Vorticity
4 4 4 4 5 5 6 6 5 3 3 4 6 7 10 9 5 3 4 6 6 5 5 5 6 8 8 7 6 5 3 3 4 4 4 5 4 5 6 4 10 17
4 3 4 4 4 4 5 5 5 4 3 4 6 8 10 8 6 4 4 6 5 4 5 6 7 7 6 4 2 2 2 2 4 5 5 7 7 6 6 6 7 12
5 4 4 3 3 3 3 4 6 5 3 4 7 8 9 8 5 4 5 6 5 4 6 7 6 5 3 2 1 1 3 4 5 7 7 9 10 9 7 7 7 8
6 5 4 4 4 3 4 5 6 5 3 5 8 9 9 7 4 5 5 5 4 5 7 6 3 2 2 3 4 5 6 7 8 9 9 10 11 11 10 9 7 6
7 5 6 6 6 5 6 5 5 5 5 6 9 11 9 5 4 5 4 3 4 6 6 4 1 0 3 5 6 7 8 10 11 11 11 12 12 12 11 10 9 7
9 9 10 10 11 11 8 6 6 7 7 8 11 11 7 4 4 4 3 2 5 6 4 2 1 2 5 6 6 7 7 10 12 13 14 13 13 14 13 10 9 8
14 14 15 16 16 16 13 11 10 8 9 11 13 9 5 4 4 4 4 3 6 6 3 2 4 6 6 4 3 3 4 7 11 14 15 14 13 15 15 13 10 9
13 12 14 15 14 14 14 13 10 10 14 14 11 7 4 3 4 4 4 5 5 3 2 4 7 7 4 1 1 2 2 4 8 13 15 12 11 11 13 14 13 11
14 14 15 14 13 13 14 14 14 15 17 13 8 5 3 2 4 6 6 5 3 2 5 8 6 3 1 1 2 4 4 4 6 11 13 11 10 8 7 12 14 12
15 15 14 13 12 14 15 15 17 16 13 9 6 4 2 2 6 7 6 3 2 4 7 6 3 1 1 3 5 5 4 5 6 10 12 11 11 9 8 11 13 11
13 11 10 11 10 10 12 13 13 11 8 5 4 2 2 4 7 5 3 2 5 7 6 3 2 1 1 4 6 6 4 6 7 9 13 13 11 11 11 12 11 10
10 11 9 9 8 7 8 10 8 5 5 4 3 4 5 6 5 3 3 5 7 6 4 3 2 2 3 5 6 6 4 4 5 7 11 15 13 10 11 12 9 8
9 11 9 7 6 6 6 6 4 4 7 6 5 6 6 5 3 4 7 8 7 5 2 2 3 3 2 2 4 5 4 2 4 5 8 14 15 12 11 11 8 8
9 9 8 6 5 5 5 4 5 8 9 7 6 6 4 3 5 8 9 6 2 1 1 1 3 3 1 0 1 2 3 3 4 4 6 13 16 14 12 11 8 7
11 10 8 7 5 6 7 7 9 9 8 6 6 5 3 5 9 8 4 1 -0 0 1 1 3 2 1 1 2 1 2 4 6 7 8 12 17 16 13 11 9 6
9 10 10 10 10 10 9 9 10 9 7 6 5 4 6 8 8 3 -1 0 1 1 2 2 4 5 3 3 2 0 1 4 6 9 9 12 17 18 13 11 10 7
6 9 11 11 12 13 10 9 10 8 6 5 4 5 7 5 1 -1 1 4 3 1 2 2 2 3 3 3 2 1 1 3 6 9 9 9 14 17 16 13 9 6
8 9 12 13 14 15 12 9 9 7 5 5 4 5 4 0 -1 1 2 2 1 1 1 1 1 2 2 2 3 2 2 3 4 7 8 7 10 15 17 14 10 8
11 9 11 13 15 16 13 8 7 7 5 4 4 3 1 -2 -1 2 2 1 2 2 1 1 1 2 2 3 3 4 4 5 6 7 8 7 8 12 14 13 12 11
11 11 13 13 12 13 11 7 7 8 5 3 3 2 0 1 2 2 2 2 2 1 1 2 2 0 1 3 3 3 4 3 3 5 8 8 7 8 9 11 12 12
9 12 14 13 12 11 10 9 9 7 4 3 4 2 1 2 2 1 2 1 0 1 3 1 -0 -0 2 2 1 1 4 4 2 4 7 6 7 8 8 9 11 11
8 10 12 14 14 12 11 12 10 5 4 4 2 1 2 1 0 1 1 -0 -0 1 2 -0 -1 1 2 3 0 -3 -0 4 4 4 6 5 6 9 8 8 9 10
7 7 8 13 16 14 14 13 9 4 4 4 1 0 0 -0 1 1 -0 1 1 -1 0 2 1 1 2 5 4 1 13 26 21 10 6 5 5 9 9 6 7 8
10 7 7 11 14 16 15 11 7 5 4 3 1 0 1 1 1 0 0 2 -0 -2 2 4 0 2 6 10 10 13 29 46 37 15 5 3 4 8 9 7 7 8
12 7 6 8 10 15 17 11 7 5 3 3 0 -1 1 1 -1 -0 1 0 -2 0 5 3 1 8 10 7 10 13 15 23 21 11 6 5 5 8 10 8 8 8
10 5 7 7 7 12 13 9 7 3 -0 0 0 0 1 -0 -2 -1 -1 -1 1 4 4 1 4 10 5 -2 6 13 8 7 9 7 6 6 6 9 11 9 8 9
Height
5915 5916 5916 5916 5916 5917 5917 5917 5918 5918 5918 5918 5918 5918 5918 5918 5918 5917 5918 5919 5919 5919 5918 5917 5916 5916 5915 5914 5913 5912 5910 5909 5907 5905 5904 5902 5900 5898 5897 5896 5896 5895
5913 5913 5914 5914 5914 5914 5915 5915 5916 5916 5916 5916 5916 5916 5916 5916 5916 5916 5916 5917 5917 5918 5917 5916 5915 5914 5914 5913 5911 5910 5909 5907 5905 5904 5902 5900 5899 5897 5895 5894 5893 5893
5910 5911 5912 5912 5912 5912 5912 5913 5914 5914 5914 5914 5914 5914 5914 5914 5915 5915 5915 5915 5916 5916 5915 5915 5914 5913 5912 5911 5910 5909 5907 5906 5904 5902 5900 5899 5897 5895 5893 5892 5890 5890
5907 5908 5909 5909 5909 5909 5910 5911 5911 5912 5912 5912 5913 5913 5912 5912 5913 5914 5914 5914 5914 5914 5914 5913 5912 5911 5910 5909 5908 5907 5906 5904 5902 5901 5899 5897 5895 5893 5892 5890 5889 5887
5904 5905 5906 5907 5907 5907 5907 5908 5909 5909 5910 5910 5911 5911 5911 5911 5911 5912 5912 5912 5912 5912 5911 5911 5910 5909 5908 5907 5906 5905 5904 5902 5900 5899 5897 5895 5893 5891 5890 5888 5887 5885
5900 5902 5903 5903 5904 5904 5905 5905 5906 5907 5907 5908 5909 5909 5910 5910 5910 5910 5910 5910 5910 5910 5909 5909 5908 5907 5906 5905 5904 5903 5901 5900 5898 5896 5894 5893 5891 5889 5888 5886 5884 5883
5897 5898 5899 5900 5900 5901 5902 5902 5903 5904 5905 5905 5906 5907 5908 5908 5908 5909 5909 5908 5908 5908 5907 5906 5906 5905 5904 5903 5902 5900 5899 5897 5895 5893 5892 5890 5889 5887 5886 5884 5882 5881
5894 5895 5896 5897 5897 5898 5899 5900 5900 5901 5902 5903 5904 5905 5906 5906 5907 5907 5907 5906 5906 5906 5905 5904 5903 5903 5902 5901 5900 5898 5896 5894 5892 5891 5889 5887 5886 5885 5884 5883 5881 5879
5892 5893 5893 5894 5894 5895 5896 5897 5898 5899 5900 5901 5901 5902 5903 5904 5905 5905 5905 5904 5904 5904 5903 5902 5901 5900 5899 5898 5897 5896 5894 5892 5890 5888 5887 5885 5883 5882 5881 5880 5879 5877
5890 5890 5891 5891 5892 5892 5893 5894 5895 5896 5897 5898 5899 5900 5900 5901 5902 5902 5902 5902 5902 5902 5901 5900 5899 5898 5897 5896 5895 5893 5891 5889 5887 5886 5884 5882 5881 5879 5878 5877 5876 5874
5888 5889 5889 5889 5889 5890 5890 5891 5893 5894 5895 5895 5897 5897 5898 5899 5899 5900 5900 5900 5900 5900 5899 5898 5897 5896 5894 5893 5892 5890 5889 5887 5885 5883 5882 5880 5879 5877 5876 5875 5873 5871
5887 5887 5888 5887 5887 5887 5888 5889 5890 5891 5892 5893 5894 5895 5896 5896 5897 5897 5898 5898 5898 5897 5897 5896 5895 5894 5892 5890 5889 5888 5886 5885 5883 5881 5880 5878 5876 5875 5874 5872 5870 5868
5885 5886 5886 5885 5885 5885 5886 5887 5888 5888 5889 5890 5891 5892 5893 5894 5895 5895 5895 5895 5895 5895 5894 5893 5892 5891 5890 5888 5887 5885 5884 5882 5881 5879 5877 5876 5874 5872 5871 5869 5867 5866
5883 5883 5883 5883 5883 5883 5883 5884 5885 5886 5886 5887 5888 5890 5891 5891 5892 5893 5893 5893 5893 5893 5892 5891 5890 5889 5887 5886 5884 5883 5882 5880 5878 5877 5875 5873 5871 5869 5868 5866 5865 5863
5880 5881 5881 5881 5881 5881 5881 5882 5882 5883 5883 5884 5886 5887 5888 5889 5889 5890 5890 5890 5890 5890 5889 5889 5887 5886 5885 5883 5881 5880 5879 5878 5876 5874 5872 5871 5869 5867 5865 5863 5862 5861
5877 5878 5878 5879 5879 5879 5879 5879 5879 5880 5880 5882 5883 5884 5885 5886 5887 5887 5888 5888 5888 5887 5887 5886 5885 5883 5882 5880 5879 5877 5876 5875 5873 5872 5870 5868 5866 5864 5862 5860 5859 5858
5874 5875 5875 5876 5876 5876 5876 5876 5876 5876 5877 5878 5880 5881 5882 5883 5884 5884 5885 5885 5885 5884 5883 5882 5881 5880 5879 5877 5876 5875 5874 5872 5871 5869 5867 5865 5863 5861 5860 5858 5856 5854
5871 5872 5872 5873 5873 5873 5873 5873 5873 5873 5874 5876 5877 5877 5879 5880 5881 5881 5881 5881 5881 5880 5880 5879 5878 5877 5876 5874 5873 5872 5871 5869 5868 5866 5864 5862 5860 5858 5856 5855 5853 5851
5868 5868 5869 5870 5870 5870 5870 5869 5870 5871 5872 5873 5874 5874 5875 5876 5877 5877 5878 5878 5878 5877 5876 5876 5875 5874 5873 5871 5870 5868 5867 5866 5864 5862 5861 5859 5857 5854 5853 5851 5850 5848
5865 5865 5866 5867 5867 5866 5866 5866 5867 5868 5869 5870 5870 5871 5872 5873 5874 5874 5875 5875 5874 5874 5873 5873 5872 5871 5870 5868 5866 5864 5863 5862 5860 5859 5857 5856 5853 5851 5849 5847 5846 5844
5861 5862 5862 5863 5863 5863 5862 5863 5864 5865 5865 5866 5867 5868 5869 5870 5870 5871 5871 5871 5871 5870 5870 5869 5868 5867 5866 5864 5863 5860 5859 5858 5856 5855 5853 5852 5850 5847 5845 5844 5842 5840
5858 5858 5858 5859 5859 5859 5859 5860 5861 5861 5862 5863 5864 5865 5866 5867 5867 5868 5868 5868 5867 5867 5866 5865 5864 5863 5862 5861 5859 5857 5855 5853 5852 5850 5849 5847 5845 5843 5841 5840 5838 5836
5854 5854 5854 5855 5856 5856 5857 5858 5858 5858 5859 5860 5861 5862 5862 5863 5864 5864 5864 5864 5864 5863 5862 5861 5860 5859 5858 5857 5855 5853 5850 5847 5846 5845 5844 5843 5841 5839 5837 5835 5834 5832
5851 5850 5851 5852 5853 5853 5854 5855 5855 5855 5856 5856 5857 5858 5859 5859 5860 5860 5860 5860 5860 5859 5858 5857 5856 5855 5854 5853 5851 5849 5845 5842 5841 5841 5840 5838 5836 5834 5833 5831 5830 5828
5847 5847 5847 5848 5849 5850 5851 5852 5852 5852 5852 5853 5853 5854 5855 5855 5855 5856 5856 5856 5856 5855 5853 5853 5852 5851 5850 5848 5847 5845 5842 5839 5838 5836 5835 5833 5831 5830 5829 5827 5825 5824
5843 5843 5844 5844 5845 5846 5847 5847 5848 5848 5849 5849 5849 5850 5851 5851 5851 5851 5851 5851 5851 5850 5849 5849 5848 5846 5845 5844 5842 5840 5838 5836 5834 5832 5830 5829 5827 5826 5824 5822 5821 5819